NOZ276 ENGM-ENCN

Flight info

Callsign NOZ276
Flight time 0h 34m
Altitude 22000
Route VIPPA DCT OSVAL
Aircraft B738/M-SDE2E3GHIJ1LRWXY/LB1

Departure

Time 2026-05-06 13:52
Airport Oslo-Gardermoen International Airport (ENGM)

Arrival

Time 2026-05-06 14:27
Airport Kristiansand Airport (ENCN)
Time Latitude Longitude Altitude Speed Heading
2026-05-06 13:21 60.19520 11.09733 684 ft 0 kts 196°
2026-05-06 13:42 60.19523 11.09735 677 ft 3 kts 196°
2026-05-06 13:42 60.19549 11.09750 681 ft 4 kts 196°
2026-05-06 13:42 60.19562 11.09758 680 ft 1 kts 196°
2026-05-06 13:45 60.19556 11.09748 679 ft 3 kts 221°
2026-05-06 13:46 60.19559 11.09698 680 ft 3 kts 323°
2026-05-06 13:46 60.19601 11.09686 681 ft 10 kts 353°
2026-05-06 13:46 60.19654 11.09594 679 ft 12 kts 287°
2026-05-06 13:46 60.19679 11.09417 682 ft 15 kts 286°
2026-05-06 13:47 60.19709 11.09202 679 ft 17 kts 286°
2026-05-06 13:47 60.19742 11.08971 680 ft 19 kts 286°
2026-05-06 13:47 60.19780 11.08737 677 ft 13 kts 303°
2026-05-06 13:47 60.19861 11.08723 678 ft 12 kts 15°
2026-05-06 13:48 60.19948 11.08772 679 ft 14 kts 17°
2026-05-06 13:48 60.20062 11.08839 680 ft 20 kts 16°
2026-05-06 13:48 60.20216 11.08925 677 ft 25 kts 15°
2026-05-06 13:48 60.20393 11.09028 681 ft 28 kts 16°
2026-05-06 13:49 60.20584 11.09139 681 ft 26 kts 15°
2026-05-06 13:49 60.20755 11.09239 683 ft 25 kts 16°
2026-05-06 13:49 60.20916 11.09328 684 ft 23 kts 16°
2026-05-06 13:49 60.21068 11.09419 680 ft 22 kts 16°
2026-05-06 13:50 60.21216 11.09504 684 ft 22 kts 16°
2026-05-06 13:50 60.21359 11.09587 686 ft 21 kts 16°
2026-05-06 13:50 60.21495 11.09629 683 ft 18 kts 341°
2026-05-06 13:50 60.21561 11.09411 683 ft 20 kts 285°
2026-05-06 13:51 60.21590 11.09193 683 ft 10 kts 276°
2026-05-06 13:51 60.21571 11.09150 680 ft 4 kts 205°
2026-05-06 13:51 60.21559 11.09140 682 ft 0 kts 199°
2026-05-06 13:51 60.21427 11.09065 682 ft 53 kts 195°
2026-05-06 13:52 60.20842 11.08728 676 ft 119 kts 196°
2026-05-06 13:52 60.19875 11.08194 770 ft 162 kts 192°
2026-05-06 13:52 60.18772 11.07644 1527 ft 162 kts 196°
2026-05-06 13:52 60.17613 11.06985 2095 ft 187 kts 200°
2026-05-06 13:53 60.16429 11.05517 2301 ft 216 kts 233°
2026-05-06 13:53 60.15744 11.02787 2918 ft 225 kts 248°
2026-05-06 13:53 60.15119 10.99923 3598 ft 233 kts 247°
2026-05-06 13:53 60.14463 10.96958 4045 ft 252 kts 246°
2026-05-06 13:54 60.13596 10.93895 4971 ft 255 kts 227°
2026-05-06 13:54 60.12059 10.92070 5846 ft 262 kts 201°
2026-05-06 13:54 60.10331 10.90884 6758 ft 263 kts 200°
2026-05-06 13:54 60.08581 10.89706 7602 ft 267 kts 200°
2026-05-06 13:55 60.06804 10.88505 8439 ft 271 kts 200°
2026-05-06 13:55 60.05020 10.87275 9385 ft 271 kts 200°
2026-05-06 13:55 60.03211 10.86021 10113 ft 278 kts 200°
2026-05-06 13:55 60.01346 10.84718 10420 ft 299 kts 201°
2026-05-06 13:56 59.99319 10.83287 10749 ft 317 kts 202°
2026-05-06 13:56 59.97209 10.81791 11422 ft 324 kts 202°
2026-05-06 13:56 59.95074 10.80283 12262 ft 326 kts 203°
2026-05-06 13:56 59.92930 10.78768 13160 ft 328 kts 204°
2026-05-06 13:57 59.90771 10.77238 13990 ft 331 kts 204°
2026-05-06 13:57 59.88593 10.75693 14804 ft 333 kts 204°
2026-05-06 13:57 59.86402 10.74140 15649 ft 335 kts 205°
2026-05-06 13:57 59.84294 10.72230 16469 ft 331 kts 216°
2026-05-06 13:58 59.82396 10.69818 17478 ft 326 kts 218°
2026-05-06 13:58 59.80513 10.67391 18556 ft 319 kts 218°
2026-05-06 13:58 59.78671 10.65007 19499 ft 314 kts 218°
2026-05-06 13:58 59.76849 10.62653 20395 ft 311 kts 219°
2026-05-06 13:59 59.75041 10.60330 21301 ft 308 kts 218°
2026-05-06 13:59 59.73233 10.58014 21730 ft 310 kts 218°
2026-05-06 13:59 59.71415 10.55694 21918 ft 311 kts 218°
2026-05-06 13:59 59.69599 10.53386 21927 ft 309 kts 218°
2026-05-06 14:00 59.67787 10.51090 21937 ft 309 kts 218°
2026-05-06 14:00 59.66003 10.48833 21945 ft 309 kts 218°
2026-05-06 14:00 59.64189 10.46543 21944 ft 309 kts 218°
2026-05-06 14:00 59.62379 10.44261 21952 ft 309 kts 218°
2026-05-06 14:01 59.60566 10.41977 21936 ft 310 kts 218°
2026-05-06 14:01 59.58746 10.39691 21939 ft 309 kts 218°
2026-05-06 14:01 59.56929 10.37412 21949 ft 309 kts 218°
2026-05-06 14:01 59.55111 10.35135 21946 ft 310 kts 218°
2026-05-06 14:02 59.53289 10.32855 21951 ft 310 kts 218°
2026-05-06 14:02 59.51468 10.30578 21928 ft 310 kts 218°
2026-05-06 14:02 59.49650 10.28308 21932 ft 310 kts 218°
2026-05-06 14:02 59.47855 10.26071 21897 ft 309 kts 218°
2026-05-06 14:03 59.46040 10.23811 21935 ft 309 kts 218°
2026-05-06 14:03 59.44225 10.21554 21946 ft 309 kts 218°
2026-05-06 14:03 59.42409 10.19297 21940 ft 310 kts 218°
2026-05-06 14:03 59.40661 10.16842 21945 ft 307 kts 224°
2026-05-06 14:04 59.39021 10.14155 21959 ft 307 kts 225°
2026-05-06 14:04 59.37398 10.11415 21951 ft 308 kts 225°
2026-05-06 14:04 59.35795 10.08707 21948 ft 308 kts 225°
2026-05-06 14:04 59.34168 10.05967 21951 ft 308 kts 225°
2026-05-06 14:05 59.32539 10.03235 21952 ft 309 kts 225°
2026-05-06 14:05 59.30904 10.00505 21963 ft 309 kts 225°
2026-05-06 14:05 59.29349 9.97923 21965 ft 309 kts 225°
2026-05-06 14:05 59.27709 9.95206 21955 ft 309 kts 224°
2026-05-06 14:06 59.26065 9.92488 21946 ft 310 kts 224°
2026-05-06 14:06 59.24421 9.89782 21956 ft 309 kts 224°
2026-05-06 14:06 59.22778 9.87082 21960 ft 309 kts 224°
2026-05-06 14:06 59.21154 9.84416 21942 ft 308 kts 224°
2026-05-06 14:07 59.19514 9.81724 21925 ft 308 kts 225°
2026-05-06 14:07 59.17939 9.78901 21646 ft 305 kts 227°
2026-05-06 14:07 59.16426 9.76032 21306 ft 303 kts 228°
2026-05-06 14:07 59.14936 9.73173 20975 ft 300 kts 228°
2026-05-06 14:08 59.13458 9.70340 20619 ft 296 kts 228°
2026-05-06 14:08 59.11991 9.67540 20277 ft 294 kts 228°
2026-05-06 14:08 59.10534 9.64772 19942 ft 292 kts 228°
2026-05-06 14:08 59.09084 9.62029 19587 ft 290 kts 228°
2026-05-06 14:09 59.07662 9.59347 19269 ft 288 kts 228°
2026-05-06 14:09 59.06227 9.56647 18930 ft 286 kts 228°
2026-05-06 14:09 59.04799 9.53965 18593 ft 285 kts 228°
2026-05-06 14:09 59.03374 9.51294 18251 ft 284 kts 228°
2026-05-06 14:10 59.01954 9.48634 17884 ft 283 kts 228°
2026-05-06 14:10 59.00537 9.45988 17525 ft 282 kts 228°
2026-05-06 14:10 58.99139 9.43378 17171 ft 280 kts 228°
2026-05-06 14:10 58.97761 9.40810 16836 ft 278 kts 228°
2026-05-06 14:11 58.96373 9.38227 16497 ft 275 kts 227°
2026-05-06 14:11 58.94995 9.35666 16196 ft 273 kts 227°
2026-05-06 14:11 58.93628 9.33129 15879 ft 272 kts 227°
2026-05-06 14:11 58.92266 9.30602 15567 ft 271 kts 227°
2026-05-06 14:12 58.90908 9.28087 15256 ft 270 kts 227°
2026-05-06 14:12 58.89555 9.25583 14935 ft 269 kts 227°
2026-05-06 14:12 58.88209 9.23094 14633 ft 268 kts 227°
2026-05-06 14:12 58.86882 9.20645 14328 ft 267 kts 227°
2026-05-06 14:13 58.85544 9.18177 14021 ft 266 kts 227°
2026-05-06 14:13 58.84205 9.15711 13705 ft 266 kts 227°
2026-05-06 14:13 58.82867 9.13250 13356 ft 265 kts 227°
2026-05-06 14:13 58.81535 9.10801 13033 ft 264 kts 226°
2026-05-06 14:14 58.80207 9.08362 12708 ft 263 kts 226°
2026-05-06 14:14 58.78881 9.05931 12406 ft 262 kts 226°
2026-05-06 14:14 58.77563 9.03517 12089 ft 261 kts 226°
2026-05-06 14:14 58.76251 9.01115 11787 ft 260 kts 226°
2026-05-06 14:15 58.75006 8.98840 11505 ft 259 kts 226°
2026-05-06 14:15 58.73717 8.96486 11206 ft 259 kts 226°
2026-05-06 14:15 58.72411 8.94104 10907 ft 258 kts 226°
2026-05-06 14:15 58.71107 8.91729 10599 ft 258 kts 225°
2026-05-06 14:16 58.69805 8.89358 10301 ft 258 kts 225°
2026-05-06 14:16 58.68510 8.87005 10124 ft 253 kts 225°
2026-05-06 14:16 58.67248 8.84716 9984 ft 247 kts 225°
2026-05-06 14:16 58.66002 8.82455 9683 ft 247 kts 225°
2026-05-06 14:17 58.64753 8.80193 9384 ft 246 kts 226°
2026-05-06 14:17 58.63526 8.77970 9093 ft 245 kts 226°
2026-05-06 14:17 58.62285 8.75726 8806 ft 245 kts 226°
2026-05-06 14:17 58.61050 8.73496 8530 ft 244 kts 226°
2026-05-06 14:18 58.59814 8.71264 8244 ft 244 kts 226°
2026-05-06 14:18 58.58578 8.69033 7959 ft 244 kts 226°
2026-05-06 14:18 58.57343 8.66807 7684 ft 244 kts 226°
2026-05-06 14:18 58.56110 8.64588 7398 ft 244 kts 226°
2026-05-06 14:19 58.54869 8.62360 7101 ft 245 kts 226°
2026-05-06 14:19 58.53627 8.60129 6808 ft 245 kts 226°
2026-05-06 14:19 58.52396 8.57920 6510 ft 247 kts 226°
2026-05-06 14:19 58.51139 8.55666 6186 ft 248 kts 226°
2026-05-06 14:20 58.49882 8.53410 5880 ft 248 kts 225°
2026-05-06 14:20 58.48623 8.51163 5594 ft 247 kts 226°
2026-05-06 14:20 58.47371 8.48928 5309 ft 246 kts 226°
2026-05-06 14:20 58.46121 8.46698 5073 ft 243 kts 225°
2026-05-06 14:21 58.44901 8.44523 4953 ft 237 kts 225°
2026-05-06 14:21 58.43706 8.42392 4821 ft 234 kts 225°
2026-05-06 14:21 58.42499 8.40242 4771 ft 245 kts 225°
2026-05-06 14:21 58.41241 8.38003 4666 ft 254 kts 226°
2026-05-06 14:22 58.39943 8.35694 4528 ft 257 kts 225°
2026-05-06 14:22 58.38624 8.33357 4256 ft 262 kts 226°
2026-05-06 14:22 58.37292 8.31011 3970 ft 259 kts 223°
2026-05-06 14:22 58.35871 8.28937 3718 ft 256 kts 216°
2026-05-06 14:23 58.34409 8.27070 3455 ft 250 kts 214°
2026-05-06 14:23 58.32999 8.25216 3183 ft 242 kts 215°
2026-05-06 14:23 58.31655 8.23440 3011 ft 226 kts 214°
2026-05-06 14:23 58.30423 8.21814 2685 ft 208 kts 214°
2026-05-06 14:24 58.29288 8.20282 2328 ft 192 kts 216°
2026-05-06 14:24 58.28232 8.18928 2078 ft 175 kts 213°
2026-05-06 14:24 58.27289 8.17657 1848 ft 155 kts 212°
2026-05-06 14:24 58.26436 8.16565 1549 ft 141 kts 214°
2026-05-06 14:25 58.25691 8.15534 1381 ft 131 kts 215°
2026-05-06 14:25 58.24951 8.14546 1155 ft 128 kts 214°
2026-05-06 14:25 58.24217 8.13569 993 ft 132 kts 215°
2026-05-06 14:25 58.23486 8.12597 800 ft 126 kts 215°
2026-05-06 14:26 58.22754 8.11637 566 ft 124 kts 213°
2026-05-06 14:26 58.22061 8.10745 369 ft 121 kts 213°
2026-05-06 14:26 58.21345 8.09764 163 ft 129 kts 216°
2026-05-06 14:26 58.20668 8.08870 57 ft 102 kts 215°
2026-05-06 14:27 58.20312 8.08390 57 ft 39 kts 215°
2026-05-06 14:27 58.20087 8.08095 49 ft 34 kts 214°
2026-05-06 14:27 58.19943 8.07907 53 ft 23 kts 215°
2026-05-06 14:27 58.19819 8.07742 55 ft 20 kts 215°
2026-05-06 14:28 58.19723 8.07609 59 ft 15 kts 221°
2026-05-06 14:28 58.19744 8.07484 54 ft 16 kts 333°
2026-05-06 14:28 58.19837 8.07422 56 ft 16 kts 341°
2026-05-06 14:28 58.19931 8.07363 55 ft 13 kts 346°
2026-05-06 14:29 58.20004 8.07385 51 ft 10 kts 28°
2026-05-06 14:29 58.20067 8.07457 53 ft 11 kts 33°
2026-05-06 14:29 58.20138 8.07542 56 ft 13 kts 32°
2026-05-06 14:29 58.20203 8.07618 51 ft 6 kts 23°
2026-05-06 14:30 58.20223 8.07611 52 ft 3 kts 328°
2026-05-06 14:30 58.20237 8.07582 57 ft 2 kts 305°
2026-05-06 14:30 58.20244 8.07561 55 ft 1 kts 303°
2026-05-06 14:30 58.20246 8.07555 57 ft 0 kts 302°